Weather History for State College, PA

Change the Weather History Date:

Saturday, May 25, 2013

  Actual Average Record
Temperature  
Mean Temperature 50 °F -  
Max Temperature 62 °F 72 °F 88 °F (1972)
Min Temperature 39 °F 50 °F 34 °F (1956)
Degree Days  
Heating Degree Days 14    
Moisture  
Dew Point 32 °F    
Average Humidity 56    
Maximum Humidity 81    
Minimum Humidity 27    
Precipitation  
Precipitation 0.00 in - - ()
Sea Level Pressure  
Sea Level Pressure 30.16 in    
Wind  
Wind Speed 11 mph (NW)    
Max Wind Speed 20 mph    
Max Gust Speed 29 mph    
Visibility 10 miles    
Events      
Averages and records for this station are not official NWS values.
T = Trace of Precipitation, MM = Missing Value Source: NWS Daily Summary

Daily Weather History Graph

Daily Weather History Graph

Search for Another Location

Airport:

Trip Planner

Search our weather history database for the weather conditions in past years. The results will help you decide how hot, cold, wet, or windy it might be!

Date:

Astronomy

May. 25, 2013 Rise Set
Actual Time 5:45 AM EDT 8:31 PM EDT
Civil Twilight 5:13 AM EDT 9:03 PM EDT
Nautical Twilight 4:33 AM EDT 9:44 PM EDT
Astronomical Twilight 3:47 AM EDT 10:30 PM EDT
Moon 9:17 PM EDT (5/25) 6:10 AM EDT (5/25)
Length of Visible Light 15h 50m
Length of Day
14h 45m
Full, 100% of the Moon is Illuminated
May 25
Full
May 31
Last Quarter
Jun 8
New
Jun 16
First Quarter
Jun 23
Full

Hourly Weather History & Observations

Time (EDT) Temp. Windchill Dew Point Humidity Pressure Visibility Wind Dir Wind Speed Gust Speed Precip Events Conditions
12:15 AM 44.1 °F 37.7 °F 32.2 °F 63% 30.17 in 10.0 mi WNW 12.7 mph 20.7 mph N/A   Mostly Cloudy
12:35 AM 43.7 °F 38.6 °F 32.9 °F 66% 30.17 in 10.0 mi WNW 9.2 mph - N/A   Scattered Clouds
12:55 AM 43.0 °F 37.7 °F 33.4 °F 69% 30.16 in 10.0 mi WNW 9.2 mph - N/A   Scattered Clouds
1:15 AM 42.6 °F 37.8 °F 34.0 °F 71% 30.16 in 10.0 mi WNW 8.1 mph 13.8 mph N/A   Scattered Clouds
1:35 AM 42.4 °F 36.5 °F 34.2 °F 72% 30.16 in 10.0 mi WNW 10.4 mph 16.1 mph N/A   Mostly Cloudy
1:55 AM 42.4 °F 36.1 °F 34.5 °F 74% 30.16 in 10.0 mi WNW 11.5 mph 18.4 mph N/A   Mostly Cloudy
2:15 AM 42.3 °F 36.3 °F 34.7 °F 75% 30.15 in 10.0 mi WNW 10.4 mph 16.1 mph N/A   Overcast
2:35 AM 42.4 °F 36.5 °F 34.7 °F 74% 30.15 in 10.0 mi WNW 10.4 mph 18.4 mph N/A   Overcast
2:55 AM 42.4 °F 36.5 °F 34.7 °F 74% 30.16 in 10.0 mi NW 10.4 mph 18.4 mph N/A   Overcast
3:15 AM 42.3 °F 37.3 °F 34.3 °F 74% 30.16 in 10.0 mi NW 8.1 mph - N/A   Overcast
3:35 AM 42.3 °F 37.9 °F 34.2 °F 73% 30.16 in 10.0 mi WNW 6.9 mph - N/A   Overcast
3:55 AM 42.1 °F 35.2 °F 34.3 °F 74% 30.17 in 10.0 mi WNW 12.7 mph 19.6 mph N/A   Overcast
4:15 AM 41.9 °F 35.9 °F 34.3 °F 75% 30.17 in 10.0 mi WNW 10.4 mph - N/A   Overcast
4:35 AM 41.9 °F 38.2 °F 34.3 °F 75% 30.18 in 10.0 mi WNW 5.8 mph - N/A   Overcast
4:55 AM 41.0 °F 35.8 °F 33.8 °F 76% 30.17 in 10.0 mi WNW 8.1 mph - N/A   Scattered Clouds
5:15 AM 40.6 °F 35.4 °F 33.8 °F 77% 30.17 in 10.0 mi WNW 8.1 mph - N/A   Clear
5:35 AM 40.5 °F 35.1 °F 33.8 °F 77% 30.16 in 10.0 mi NW 8.1 mph - N/A   Clear
5:53 AM 39.2 °F 33.0 °F 33.8 °F 81% 30.18 in 10.0 mi NW 9.2 mph - N/A   Clear
6:53 AM 41.0 °F 34.7 °F 33.8 °F 76% 30.18 in 10.0 mi WNW 10.4 mph - N/A   Clear
7:53 AM 42.8 °F 35.8 °F 33.8 °F 70% 30.19 in 10.0 mi NW 13.8 mph - N/A   Partly Cloudy
8:53 AM 46.4 °F 40.4 °F 33.8 °F 62% 30.18 in 10.0 mi NW 13.8 mph - N/A   Scattered Clouds
9:53 AM 48.2 °F - 32.0 °F 54% 30.18 in 10.0 mi NW 11.5 mph - N/A   Mostly Cloudy
10:53 AM 50.0 °F - 30.2 °F 47% 30.17 in 10.0 mi NW 17.3 mph - N/A   Scattered Clouds
11:53 AM 53.6 °F - 32.0 °F 44% 30.17 in 10.0 mi WNW 17.3 mph 24.2 mph N/A   Mostly Cloudy
12:53 PM 57.2 °F - 30.2 °F 36% 30.15 in 10.0 mi NW 15.0 mph 27.6 mph N/A   Scattered Clouds
1:53 PM 59.0 °F - 30.2 °F 34% 30.13 in 10.0 mi WNW 15.0 mph 28.8 mph N/A   Scattered Clouds
2:53 PM 60.8 °F - 28.4 °F 29% 30.11 in 10.0 mi NW 15.0 mph 25.3 mph N/A   Scattered Clouds
3:53 PM 62.6 °F - 28.4 °F 27% 30.09 in 10.0 mi NW 19.6 mph 25.3 mph N/A   Partly Cloudy
4:53 PM 62.6 °F - 39.2 °F 42% 30.10 in 10.0 mi NNW 12.7 mph 25.3 mph N/A   Partly Cloudy
5:53 PM 60.8 °F - 26.6 °F 27% 30.11 in 10.0 mi NW 10.4 mph 20.7 mph N/A   Partly Cloudy
6:53 PM 59.0 °F - 26.6 °F 29% 30.12 in 10.0 mi NNW 12.7 mph 28.8 mph N/A   Partly Cloudy
7:53 PM 57.2 °F - 24.8 °F 29% 30.14 in 10.0 mi NW 15.0 mph 21.9 mph N/A   Clear
8:53 PM 53.6 °F - 26.6 °F 35% 30.14 in 10.0 mi NW 11.5 mph 23.0 mph N/A   Clear
9:15 PM 53.6 °F - 27.0 °F 36% 30.14 in 10.0 mi NW 9.2 mph 20.7 mph N/A   Clear
9:35 PM 53.4 °F - 27.5 °F 37% 30.15 in 10.0 mi NW 13.8 mph 20.7 mph N/A   Clear
9:55 PM 52.9 °F - 28.4 °F 39% 30.15 in 10.0 mi WNW 5.8 mph 17.3 mph N/A   Clear
10:15 PM 52.0 °F - 29.7 °F 42% 30.16 in 10.0 mi WNW 10.4 mph - N/A   Clear
10:35 PM 52.0 °F - 30.2 °F 43% 30.16 in 10.0 mi NW 10.4 mph 23.0 mph N/A   Clear
10:55 PM 51.4 °F - 30.7 °F 45% 30.16 in 10.0 mi NW 5.8 mph - N/A   Clear
11:15 PM 51.3 °F - 31.1 °F 46% 30.16 in 10.0 mi NW 5.8 mph - N/A   Clear
11:35 PM 50.9 °F - 31.8 °F 48% 30.16 in 10.0 mi NW 6.9 mph - N/A   Clear
11:55 PM 50.0 °F - 32.0 °F 50% 30.16 in 10.0 mi WNW 8.1 mph - N/A   Clear